QPF
0.00 0.01 0.03 0.06 0.11 0.08 0.02 0.00 0.00 0.01 0.01 0.01 0.01 0.02 0.02 0.05 0.06 0.07 0.07 0.04 0.04 0.02 0.03 0.04 0.06 0.12 0.21 0.17 0.12 0.12 0.14 0.13 0.13 0.13 0.13 0.12 0.13 0.15 0.14 0.13 0.12 0.12 0.14 0.12 0.10 0.12 0.15 0.18 0.15
0.00 0.02 0.05 0.12 0.13 0.05 0.02 0.01 0.01 0.01 0.00 0.00 0.00 0.00 0.01 0.03 0.01 0.02 0.04 0.03 0.02 0.01 0.02 0.03 0.03 0.08 0.15 0.20 0.21 0.18 0.17 0.17 0.15 0.16 0.16 0.14 0.14 0.15 0.15 0.14 0.12 0.12 0.11 0.10 0.12 0.14 0.16 0.20 0.13
0.01 0.01 0.06 0.11 0.05 0.03 0.02 0.01 0.01 0.00 0.00 0.00 0.00 0.00 0.01 0.02 0.01 0.03 0.03 0.01 0.01 0.01 0.02 0.03 0.04 0.06 0.11 0.16 0.19 0.17 0.16 0.15 0.12 0.15 0.16 0.14 0.13 0.14 0.14 0.14 0.12 0.09 0.09 0.08 0.09 0.11 0.13 0.14 0.13
0.02 0.05 0.06 0.05 0.02 0.01 0.01 0.01 0.01 0.01 0.01 0.00 0.00 0.01 0.02 0.03 0.01 0.02 0.01 0.01 0.02 0.02 0.02 0.02 0.04 0.06 0.09 0.11 0.14 0.15 0.14 0.13 0.12 0.14 0.15 0.16 0.15 0.15 0.15 0.14 0.11 0.08 0.08 0.08 0.09 0.10 0.10 0.10 0.11
0.03 0.05 0.06 0.02 0.00 0.00 0.00 0.00 0.01 0.00 0.00 0.00 0.00 0.01 0.05 0.04 0.01 0.01 0.02 0.02 0.02 0.03 0.04 0.03 0.04 0.06 0.06 0.07 0.09 0.11 0.10 0.09 0.10 0.12 0.11 0.13 0.15 0.13 0.13 0.14 0.12 0.09 0.07 0.06 0.09 0.12 0.12 0.10 0.10
0.09 0.09 0.04 0.01 0.00 0.00 0.00 0.00 0.00 0.00 0.00 0.00 0.00 0.01 0.05 0.04 0.01 0.01 0.02 0.02 0.02 0.02 0.04 0.04 0.04 0.05 0.06 0.07 0.10 0.09 0.09 0.09 0.10 0.12 0.11 0.10 0.11 0.12 0.12 0.11 0.09 0.08 0.07 0.08 0.12 0.13 0.12 0.11 0.09
0.08 0.06 0.01 0.00 0.00 0.00 0.00 0.00 0.00 0.00 0.01 0.00 0.00 0.01 0.05 0.06 0.03 0.02 0.02 0.03 0.02 0.02 0.04 0.07 0.07 0.05 0.05 0.05 0.06 0.06 0.07 0.09 0.11 0.13 0.11 0.11 0.10 0.11 0.11 0.08 0.07 0.08 0.08 0.11 0.14 0.13 0.11 0.10 0.11
0.03 0.03 0.02 0.00 0.00 0.00 0.00 0.00 0.00 0.00 0.00 0.00 0.00 0.01 0.03 0.03 0.03 0.03 0.03 0.04 0.03 0.03 0.04 0.06 0.06 0.06 0.05 0.04 0.05 0.05 0.06 0.09 0.12 0.14 0.11 0.11 0.12 0.10 0.07 0.06 0.05 0.05 0.04 0.07 0.10 0.12 0.13 0.11 0.10
0.02 0.03 0.01 0.00 0.00 0.00 0.00 0.00 0.00 0.00 0.00 0.00 0.00 0.00 0.01 0.01 0.02 0.03 0.05 0.04 0.04 0.03 0.02 0.02 0.03 0.02 0.03 0.03 0.05 0.06 0.08 0.10 0.15 0.17 0.16 0.19 0.15 0.09 0.09 0.06 0.04 0.03 0.03 0.04 0.06 0.08 0.10 0.09 0.07
0.01 0.01 0.00 0.00 0.00 0.00 0.00 0.00 0.00 0.00 0.00 0.00 0.01 0.00 0.00 0.01 0.01 0.03 0.04 0.05 0.04 0.03 0.02 0.02 0.02 0.02 0.02 0.02 0.04 0.06 0.07 0.08 0.19 0.30 0.24 0.18 0.12 0.09 0.05 0.04 0.03 0.03 0.03 0.03 0.04 0.05 0.06 0.07 0.06
0.00 0.00 0.00 0.00 0.00 0.00 0.00 0.00 0.00 0.00 0.01 0.01 0.01 0.01 0.00 0.01 0.03 0.03 0.03 0.04 0.04 0.03 0.02 0.03 0.03 0.02 0.02 0.03 0.03 0.05 0.05 0.08 0.16 0.25 0.21 0.16 0.10 0.07 0.05 0.05 0.06 0.04 0.03 0.04 0.04 0.05 0.06 0.07 0.08
0.00 0.00 0.00 0.00 0.00 0.00 0.00 0.00 0.00 0.00 0.00 0.00 0.01 0.00 0.01 0.02 0.03 0.03 0.04 0.06 0.04 0.03 0.03 0.03 0.03 0.04 0.04 0.03 0.04 0.03 0.02 0.04 0.06 0.10 0.10 0.08 0.08 0.07 0.06 0.07 0.07 0.06 0.05 0.05 0.04 0.05 0.05 0.05 0.07
0.00 0.00 0.00 0.00 0.00 0.00 0.00 0.00 0.00 0.00 0.00 0.00 0.02 0.01 0.01 0.01 0.03 0.04 0.03 0.03 0.03 0.03 0.02 0.03 0.03 0.05 0.04 0.05 0.06 0.02 0.01 0.03 0.03 0.03 0.03 0.04 0.06 0.06 0.06 0.06 0.07 0.06 0.05 0.03 0.03 0.04 0.04 0.05 0.05
0.00 0.00 0.00 0.00 0.00 0.00 0.00 0.00 0.00 0.00 0.00 0.00 0.02 0.02 0.03 0.03 0.03 0.04 0.04 0.03 0.03 0.03 0.02 0.02 0.02 0.02 0.03 0.04 0.04 0.02 0.01 0.01 0.01 0.02 0.01 0.03 0.05 0.07 0.07 0.06 0.06 0.05 0.04 0.04 0.03 0.03 0.05 0.05 0.05
0.00 0.00 0.00 0.00 0.00 0.00 0.02 0.01 0.00 0.00 0.00 0.00 0.01 0.02 0.03 0.03 0.04 0.04 0.03 0.03 0.02 0.03 0.02 0.01 0.01 0.01 0.02 0.03 0.02 0.01 0.00 0.01 0.01 0.02 0.02 0.03 0.03 0.04 0.06 0.06 0.05 0.05 0.05 0.05 0.04 0.04 0.04 0.04 0.04
0.00 0.00 0.01 0.01 0.00 0.01 0.03 0.06 0.00 0.00 0.00 0.01 0.00 0.01 0.01 0.03 0.05 0.04 0.02 0.02 0.02 0.02 0.02 0.01 0.00 0.01 0.02 0.04 0.05 0.03 0.02 0.03 0.03 0.04 0.04 0.03 0.03 0.03 0.05 0.06 0.05 0.06 0.05 0.05 0.05 0.04 0.04 0.05 0.04
0.01 0.01 0.01 0.02 0.01 0.00 0.01 0.03 0.02 0.00 0.00 0.01 0.01 0.00 0.00 0.01 0.02 0.01 0.01 0.01 0.01 0.01 0.02 0.01 0.02 0.02 0.02 0.04 0.06 0.04 0.04 0.05 0.04 0.05 0.06 0.06 0.05 0.05 0.05 0.05 0.06 0.06 0.05 0.05 0.05 0.05 0.04 0.05 0.06
0.02 0.02 0.02 0.03 0.01 0.00 0.00 0.01 0.02 0.01 0.01 0.00 0.01 0.01 0.00 0.00 0.01 0.01 0.00 0.00 0.00 0.01 0.03 0.02 0.02 0.03 0.04 0.05 0.06 0.06 0.05 0.05 0.05 0.07 0.09 0.05 0.05 0.06 0.07 0.07 0.07 0.05 0.06 0.07 0.06 0.06 0.06 0.06 0.06
0.00 0.00 0.01 0.01 0.00 0.00 0.00 0.00 0.01 0.02 0.01 0.00 0.00 0.00 0.00 0.01 0.00 0.01 0.00 0.00 0.00 0.01 0.02 0.02 0.05 0.05 0.06 0.06 0.05 0.05 0.06 0.07 0.08 0.08 0.07 0.06 0.05 0.06 0.08 0.08 0.09 0.08 0.09 0.09 0.06 0.07 0.07 0.07 0.07
0.00 0.00 0.01 0.00 0.00 0.00 0.00 0.01 0.01 0.01 0.00 0.00 0.00 0.00 0.00 0.01 0.01 0.01 0.01 0.01 0.01 0.01 0.01 0.01 0.02 0.04 0.03 0.05 0.04 0.04 0.05 0.06 0.06 0.07 0.08 0.07 0.06 0.05 0.06 0.08 0.08 0.09 0.11 0.10 0.08 0.08 0.09 0.08 0.08
0.00 0.00 0.00 0.00 0.00 0.00 0.01 0.02 0.03 0.01 0.00 0.00 0.00 0.00 0.00 0.00 0.00 0.01 0.01 0.00 0.00 0.01 0.01 0.01 0.02 0.03 0.03 0.04 0.04 0.04 0.05 0.06 0.05 0.05 0.05 0.05 0.04 0.04 0.04 0.06 0.06 0.09 0.08 0.09 0.07 0.07 0.10 0.10 0.08
0.00 0.00 0.00 0.00 0.00 0.00 0.01 0.02 0.03 0.02 0.01 0.01 0.01 0.00 0.00 0.00 0.00 0.00 0.01 0.00 0.00 0.00 0.00 0.01 0.02 0.03 0.02 0.04 0.05 0.06 0.06 0.08 0.06 0.05 0.05 0.05 0.04 0.05 0.05 0.06 0.07 0.07 0.06 0.08 0.05 0.06 0.07 0.08 0.09
0.00 0.00 0.00 0.00 0.00 0.00 0.01 0.01 0.01 0.01 0.01 0.01 0.02 0.01 0.00 0.00 0.00 0.00 0.00 0.00 0.00 0.00 0.00 0.01 0.02 0.02 0.03 0.03 0.05 0.07 0.05 0.06 0.06 0.05 0.05 0.05 0.04 0.04 0.04 0.06 0.07 0.07 0.07 0.07 0.06 0.09 0.07 0.09 0.08
0.00 0.00 0.00 0.00 0.00 0.00 0.00 0.00 0.01 0.01 0.01 0.01 0.03 0.02 0.00 0.00 0.00 0.00 0.00 0.00 0.00 0.00 0.00 0.00 0.01 0.02 0.02 0.02 0.03 0.04 0.05 0.06 0.06 0.06 0.05 0.05 0.05 0.05 0.04 0.06 0.07 0.07 0.07 0.06 0.06 0.08 0.07 0.08 0.08
0.00 0.01 0.02 0.02 0.01 0.01 0.00 0.00 0.00 0.00 0.01 0.02 0.03 0.01 0.01 0.00 0.00 0.00 0.00 0.00 0.00 0.00 0.00 0.00 0.01 0.01 0.01 0.02 0.03 0.03 0.05 0.05 0.04 0.04 0.04 0.04 0.04 0.05 0.04 0.05 0.06 0.06 0.07 0.06 0.07 0.07 0.07 0.08 0.08
0.00 0.03 0.03 0.02 0.01 0.01 0.01 0.00 0.00 0.00 0.00 0.00 0.01 0.02 0.01 0.00 0.00 0.00 0.00 0.00 0.00 0.00 0.00 0.00 0.01 0.01 0.01 0.02 0.02 0.03 0.04 0.03 0.02 0.04 0.03 0.03 0.03 0.03 0.03 0.04 0.03 0.04 0.04 0.05 0.08 0.06 0.06 0.08 0.07
0.00 0.00 0.01 0.02 0.01 0.01 0.01 0.01 0.00 0.00 0.00 0.00 0.00 0.00 0.00 0.00 0.00 0.00 0.00 0.00 0.00 0.00 0.00 0.00 0.01 0.01 0.01 0.01 0.01 0.02 0.02 0.04 0.04 0.04 0.03 0.03 0.03 0.03 0.03 0.04 0.04 0.05 0.05 0.05 0.07 0.07 0.06 0.07 0.06
0.00 0.00 0.01 0.00 0.00 0.00 0.01 0.02 0.02 0.00 0.00 0.00 0.00 0.00 0.00 0.00 0.00 0.00 0.00 0.00 0.00 0.00 0.00 0.00 0.00 0.01 0.01 0.01 0.01 0.01 0.02 0.03 0.05 0.04 0.03 0.03 0.03 0.03 0.05 0.06 0.06 0.06 0.05 0.05 0.07 0.06 0.04 0.05 0.06
0.00 0.01 0.00 0.00 0.00 0.00 0.01 0.02 0.01 0.00 0.01 0.01 0.00 0.00 0.00 0.00 0.00 0.00 0.00 0.00 0.00 0.00 0.00 0.00 0.00 0.00 0.01 0.01 0.01 0.02 0.02 0.02 0.02 0.03 0.03 0.04 0.04 0.05 0.06 0.06 0.07 0.07 0.06 0.06 0.06 0.05 0.04 0.05 0.07
0.00 0.00 0.00 0.00 0.00 0.00 0.00 0.01 0.01 0.00 0.01 0.01 0.00 0.00 0.00 0.00 0.00 0.00 0.00 0.00 0.00 0.00 0.00 0.00 0.00 0.01 0.02 0.02 0.02 0.03 0.03 0.03 0.03 0.02 0.03 0.03 0.04 0.05 0.05 0.06 0.07 0.08 0.08 0.07 0.05 0.05 0.05 0.06 0.05
MSLP
1005.32 1006.17 1007.11 1008.04 1008.86 1009.48 1009.83 1009.91 1009.76 1009.44 1009.06 1008.72 1008.47 1008.36 1008.38 1008.47 1008.59 1008.67 1008.68 1008.62 1008.52 1008.44 1008.42 1008.51 1008.74 1009.10 1009.54 1010.01 1010.47 1010.87 1011.21 1011.50 1011.76 1012.03 1012.34 1012.69 1013.07 1013.45 1013.79 1014.08 1014.31 1014.47 1014.61 1014.75 1014.91 1015.12 1015.36 1015.61 1015.86
1005.60 1006.47 1007.35 1008.14 1008.75 1009.12 1009.23 1009.11 1008.83 1008.47 1008.14 1007.91 1007.81 1007.86 1008.01 1008.21 1008.39 1008.52 1008.56 1008.54 1008.49 1008.47 1008.54 1008.72 1009.03 1009.44 1009.91 1010.39 1010.85 1011.25 1011.59 1011.90 1012.20 1012.51 1012.85 1013.22 1013.59 1013.93 1014.23 1014.45 1014.62 1014.76 1014.88 1015.03 1015.22 1015.45 1015.71 1015.97 1016.19
1005.86 1006.73 1007.51 1008.13 1008.51 1008.63 1008.51 1008.23 1007.86 1007.51 1007.26 1007.16 1007.23 1007.44 1007.72 1008.00 1008.24 1008.38 1008.44 1008.44 1008.43 1008.48 1008.63 1008.90 1009.29 1009.76 1010.27 1010.77 1011.23 1011.63 1011.99 1012.32 1012.65 1012.99 1013.36 1013.72 1014.07 1014.36 1014.59 1014.76 1014.88 1014.99 1015.12 1015.30 1015.53 1015.80 1016.08 1016.34 1016.54
1006.02 1006.85 1007.51 1007.95 1008.13 1008.04 1007.76 1007.37 1006.97 1006.68 1006.55 1006.62 1006.85 1007.19 1007.57 1007.91 1008.16 1008.29 1008.33 1008.33 1008.35 1008.46 1008.68 1009.03 1009.50 1010.03 1010.58 1011.10 1011.56 1011.98 1012.35 1012.71 1013.07 1013.45 1013.83 1014.20 1014.51 1014.76 1014.94 1015.05 1015.13 1015.23 1015.38 1015.59 1015.87 1016.18 1016.49 1016.74 1016.90
1005.97 1006.72 1007.28 1007.57 1007.59 1007.37 1007.01 1006.60 1006.26 1006.08 1006.11 1006.34 1006.72 1007.18 1007.62 1007.98 1008.19 1008.28 1008.28 1008.25 1008.28 1008.42 1008.70 1009.12 1009.65 1010.23 1010.80 1011.34 1011.82 1012.24 1012.63 1013.02 1013.42 1013.84 1014.25 1014.62 1014.93 1015.15 1015.28 1015.35 1015.42 1015.51 1015.68 1015.94 1016.26 1016.60 1016.92 1017.16 1017.28
1005.63 1006.30 1006.75 1006.94 1006.87 1006.62 1006.27 1005.94 1005.73 1005.72 1005.94 1006.34 1006.86 1007.40 1007.86 1008.19 1008.34 1008.36 1008.29 1008.22 1008.24 1008.40 1008.72 1009.18 1009.75 1010.35 1010.94 1011.48 1011.95 1012.38 1012.79 1013.22 1013.67 1014.13 1014.58 1014.98 1015.29 1015.51 1015.62 1015.68 1015.74 1015.84 1016.03 1016.32 1016.67 1017.04 1017.36 1017.57 1017.64
1005.00 1005.57 1005.94 1006.07 1006.00 1005.80 1005.55 1005.38 1005.36 1005.57 1005.98 1006.55 1007.18 1007.77 1008.23 1008.50 1008.58 1008.51 1008.37 1008.26 1008.26 1008.42 1008.75 1009.24 1009.82 1010.42 1010.99 1011.51 1011.97 1012.39 1012.82 1013.27 1013.77 1014.29 1014.80 1015.24 1015.59 1015.82 1015.94 1016.01 1016.07 1016.19 1016.40 1016.71 1017.07 1017.45 1017.75 1017.93 1017.95
1004.15 1004.63 1004.94 1005.07 1005.05 1004.95 1004.87 1004.90 1005.10 1005.53 1006.13 1006.84 1007.56 1008.18 1008.62 1008.84 1008.85 1008.70 1008.51 1008.36 1008.35 1008.51 1008.85 1009.33 1009.90 1010.47 1011.00 1011.47 1011.89 1012.30 1012.72 1013.20 1013.74 1014.32 1014.88 1015.38 1015.78 1016.05 1016.21 1016.30 1016.38 1016.52 1016.74 1017.05 1017.42 1017.78 1018.06 1018.21 1018.19
1003.25 1003.65 1003.92 1004.07 1004.13 1004.16 1004.26 1004.49 1004.91 1005.52 1006.29 1007.11 1007.89 1008.52 1008.94 1009.12 1009.08 1008.89 1008.68 1008.52 1008.51 1008.68 1009.02 1009.49 1010.02 1010.54 1011.01 1011.42 1011.78 1012.15 1012.55 1013.04 1013.61 1014.23 1014.85 1015.41 1015.86 1016.19 1016.39 1016.52 1016.63 1016.78 1017.01 1017.32 1017.68 1018.02 1018.27 1018.38 1018.34
1002.48 1002.82 1003.07 1003.25 1003.39 1003.54 1003.79 1004.18 1004.76 1005.51 1006.37 1007.26 1008.06 1008.70 1009.10 1009.27 1009.22 1009.04 1008.84 1008.72 1008.73 1008.92 1009.27 1009.72 1010.21 1010.67 1011.07 1011.40 1011.69 1012.00 1012.37 1012.84 1013.41 1014.05 1014.71 1015.32 1015.83 1016.21 1016.46 1016.63 1016.78 1016.95 1017.19 1017.50 1017.84 1018.15 1018.38 1018.47 1018.41
1002.02 1002.33 1002.57 1002.77 1002.96 1003.19 1003.53 1004.02 1004.66 1005.47 1006.36 1007.25 1008.05 1008.68 1009.08 1009.25 1009.24 1009.11 1008.97 1008.91 1008.99 1009.21 1009.57 1010.00 1010.45 1010.85 1011.18 1011.43 1011.65 1011.89 1012.21 1012.64 1013.19 1013.83 1014.50 1015.14 1015.69 1016.12 1016.43 1016.64 1016.83 1017.03 1017.28 1017.58 1017.90 1018.20 1018.42 1018.50 1018.44
1002.00 1002.30 1002.54 1002.74 1002.95 1003.19 1003.54 1004.02 1004.65 1005.42 1006.26 1007.10 1007.86 1008.47 1008.88 1009.09 1009.14 1009.10 1009.06 1009.09 1009.23 1009.50 1009.88 1010.30 1010.72 1011.07 1011.33 1011.52 1011.67 1011.85 1012.10 1012.48 1012.99 1013.60 1014.25 1014.89 1015.46 1015.93 1016.28 1016.55 1016.78 1017.01 1017.27 1017.57 1017.89 1018.19 1018.40 1018.49 1018.45
1002.43 1002.74 1002.98 1003.16 1003.34 1003.54 1003.82 1004.21 1004.74 1005.40 1006.13 1006.88 1007.57 1008.15 1008.57 1008.84 1008.97 1009.04 1009.10 1009.22 1009.43 1009.75 1010.14 1010.56 1010.95 1011.27 1011.49 1011.64 1011.74 1011.86 1012.06 1012.37 1012.82 1013.37 1013.98 1014.60 1015.16 1015.65 1016.04 1016.36 1016.63 1016.90 1017.19 1017.51 1017.83 1018.13 1018.35 1018.47 1018.46
1003.21 1003.55 1003.78 1003.93 1004.04 1004.15 1004.32 1004.57 1004.94 1005.43 1006.02 1006.64 1007.25 1007.80 1008.24 1008.56 1008.78 1008.95 1009.10 1009.31 1009.58 1009.92 1010.32 1010.73 1011.11 1011.41 1011.61 1011.74 1011.82 1011.91 1012.05 1012.30 1012.67 1013.15 1013.69 1014.26 1014.81 1015.30 1015.72 1016.08 1016.40 1016.71 1017.04 1017.38 1017.72 1018.03 1018.28 1018.43 1018.47
1004.15 1004.50 1004.72 1004.84 1004.88 1004.89 1004.92 1005.02 1005.22 1005.53 1005.96 1006.45 1006.98 1007.49 1007.95 1008.33 1008.63 1008.88 1009.11 1009.36 1009.66 1010.01 1010.40 1010.79 1011.15 1011.45 1011.66 1011.79 1011.87 1011.94 1012.06 1012.25 1012.54 1012.94 1013.40 1013.91 1014.42 1014.90 1015.34 1015.73 1016.10 1016.45 1016.81 1017.18 1017.54 1017.88 1018.16 1018.36 1018.46
1005.00 1005.35 1005.57 1005.66 1005.65 1005.58 1005.51 1005.47 1005.51 1005.67 1005.96 1006.35 1006.80 1007.29 1007.76 1008.18 1008.55 1008.86 1009.14 1009.41 1009.71 1010.03 1010.39 1010.75 1011.09 1011.39 1011.61 1011.77 1011.88 1011.96 1012.05 1012.20 1012.43 1012.73 1013.12 1013.55 1014.01 1014.47 1014.91 1015.33 1015.73 1016.12 1016.51 1016.91 1017.29 1017.65 1017.97 1018.21 1018.38
1005.55 1005.90 1006.12 1006.21 1006.19 1006.09 1005.95 1005.83 1005.77 1005.82 1006.00 1006.30 1006.71 1007.18 1007.67 1008.13 1008.54 1008.89 1009.19 1009.46 1009.73 1010.01 1010.32 1010.64 1010.96 1011.26 1011.51 1011.71 1011.85 1011.95 1012.05 1012.16 1012.33 1012.56 1012.85 1013.21 1013.61 1014.04 1014.47 1014.90 1015.32 1015.73 1016.14 1016.54 1016.94 1017.33 1017.68 1017.97 1018.20
1005.68 1006.03 1006.28 1006.41 1006.43 1006.35 1006.21 1006.06 1005.95 1005.94 1006.05 1006.29 1006.66 1007.12 1007.62 1008.11 1008.56 1008.94 1009.25 1009.51 1009.74 1009.98 1010.23 1010.51 1010.81 1011.11 1011.39 1011.62 1011.81 1011.94 1012.05 1012.15 1012.26 1012.42 1012.64 1012.92 1013.26 1013.64 1014.05 1014.47 1014.88 1015.30 1015.70 1016.11 1016.51 1016.90 1017.27 1017.62 1017.92
1005.39 1005.75 1006.05 1006.26 1006.37 1006.38 1006.30 1006.17 1006.05 1006.00 1006.05 1006.24 1006.58 1007.01 1007.52 1008.04 1008.52 1008.93 1009.26 1009.52 1009.73 1009.93 1010.14 1010.39 1010.67 1010.98 1011.28 1011.56 1011.79 1011.96 1012.08 1012.17 1012.25 1012.36 1012.51 1012.72 1013.00 1013.32 1013.69 1014.08 1014.47 1014.86 1015.24 1015.62 1016.00 1016.38 1016.77 1017.16 1017.52
1004.80 1005.18 1005.56 1005.90 1006.14 1006.26 1006.27 1006.19 1006.08 1005.99 1005.99 1006.11 1006.38 1006.78 1007.27 1007.80 1008.32 1008.77 1009.14 1009.42 1009.65 1009.84 1010.05 1010.29 1010.57 1010.88 1011.22 1011.53 1011.80 1012.01 1012.16 1012.25 1012.32 1012.38 1012.48 1012.63 1012.84 1013.11 1013.43 1013.77 1014.12 1014.46 1014.80 1015.13 1015.47 1015.82 1016.21 1016.61 1017.02
1004.08 1004.52 1005.02 1005.50 1005.89 1006.15 1006.25 1006.21 1006.08 1005.92 1005.82 1005.84 1006.01 1006.33 1006.79 1007.31 1007.86 1008.36 1008.80 1009.15 1009.43 1009.67 1009.90 1010.17 1010.47 1010.81 1011.17 1011.53 1011.84 1012.09 1012.27 1012.38 1012.44 1012.48 1012.54 1012.64 1012.80 1013.02 1013.28 1013.56 1013.86 1014.14 1014.41 1014.68 1014.96 1015.27 1015.63 1016.03 1016.47
1003.44 1003.98 1004.60 1005.23 1005.77 1006.14 1006.31 1006.27 1006.08 1005.81 1005.56 1005.42 1005.43 1005.64 1006.01 1006.52 1007.09 1007.66 1008.19 1008.64 1009.02 1009.35 1009.65 1009.97 1010.32 1010.71 1011.11 1011.51 1011.87 1012.17 1012.38 1012.52 1012.59 1012.63 1012.67 1012.75 1012.86 1013.03 1013.24 1013.47 1013.70 1013.92 1014.12 1014.32 1014.53 1014.78 1015.08 1015.46 1015.89
1003.03 1003.67 1004.43 1005.20 1005.86 1006.31 1006.49 1006.41 1006.10 1005.67 1005.22 1004.86 1004.68 1004.72 1004.99 1005.45 1006.04 1006.68 1007.30 1007.88 1008.39 1008.84 1009.25 1009.65 1010.07 1010.51 1010.97 1011.41 1011.83 1012.17 1012.44 1012.61 1012.72 1012.78 1012.83 1012.89 1012.98 1013.11 1013.27 1013.45 1013.63 1013.78 1013.92 1014.05 1014.19 1014.36 1014.61 1014.93 1015.33
1002.90 1003.65 1004.52 1005.39 1006.12 1006.60 1006.76 1006.59 1006.13 1005.50 1004.81 1004.22 1003.82 1003.68 1003.83 1004.22 1004.80 1005.50 1006.23 1006.93 1007.57 1008.15 1008.67 1009.17 1009.67 1010.18 1010.69 1011.19 1011.66 1012.06 1012.39 1012.62 1012.78 1012.87 1012.94 1013.01 1013.09 1013.20 1013.34 1013.48 1013.61 1013.72 1013.80 1013.87 1013.94 1014.05 1014.21 1014.46 1014.80
1003.00 1003.83 1004.78 1005.71 1006.47 1006.93 1007.03 1006.74 1006.13 1005.30 1004.41 1003.59 1002.98 1002.67 1002.68 1003.00 1003.57 1004.30 1005.10 1005.90 1006.65 1007.34 1007.97 1008.56 1009.13 1009.70 1010.27 1010.83 1011.36 1011.83 1012.22 1012.52 1012.73 1012.88 1012.98 1013.07 1013.16 1013.26 1013.38 1013.50 1013.60 1013.68 1013.73 1013.76 1013.78 1013.81 1013.90 1014.06 1014.31
1003.24 1004.10 1005.08 1006.00 1006.74 1007.16 1007.19 1006.81 1006.07 1005.10 1004.04 1003.07 1002.31 1001.86 1001.77 1002.01 1002.54 1003.28 1004.11 1004.96 1005.78 1006.54 1007.24 1007.89 1008.51 1009.13 1009.75 1010.36 1010.94 1011.48 1011.94 1012.31 1012.59 1012.79 1012.94 1013.05 1013.16 1013.26 1013.37 1013.48 1013.58 1013.65 1013.68 1013.68 1013.66 1013.65 1013.66 1013.73 1013.88
1003.48 1004.32 1005.25 1006.13 1006.82 1007.18 1007.15 1006.72 1005.94 1004.91 1003.81 1002.77 1001.94 1001.43 1001.27 1001.46 1001.95 1002.65 1003.46 1004.31 1005.14 1005.91 1006.62 1007.28 1007.92 1008.56 1009.21 1009.86 1010.49 1011.08 1011.61 1012.04 1012.38 1012.64 1012.83 1012.97 1013.09 1013.20 1013.31 1013.42 1013.52 1013.59 1013.62 1013.62 1013.58 1013.52 1013.48 1013.46 1013.50
1003.63 1004.39 1005.23 1006.02 1006.63 1006.95 1006.90 1006.49 1005.76 1004.80 1003.76 1002.78 1002.00 1001.51 1001.34 1001.50 1001.94 1002.58 1003.33 1004.11 1004.87 1005.59 1006.25 1006.88 1007.50 1008.13 1008.78 1009.44 1010.11 1010.74 1011.31 1011.79 1012.18 1012.48 1012.70 1012.86 1012.99 1013.10 1013.22 1013.33 1013.44 1013.52 1013.56 1013.56 1013.52 1013.44 1013.34 1013.25 1013.19
1003.67 1004.30 1005.00 1005.67 1006.20 1006.49 1006.48 1006.17 1005.58 1004.81 1003.96 1003.18 1002.55 1002.16 1002.05 1002.21 1002.60 1003.15 1003.79 1004.45 1005.09 1005.69 1006.25 1006.80 1007.36 1007.94 1008.57 1009.22 1009.89 1010.54 1011.13 1011.65 1012.06 1012.38 1012.61 1012.77 1012.90 1013.02 1013.13 1013.24 1013.36 1013.45 1013.51 1013.52 1013.48 1013.38 1013.25 1013.09 1012.95
1003.66 1004.13 1004.67 1005.21 1005.65 1005.94 1006.01 1005.85 1005.49 1004.99 1004.44 1003.93 1003.54 1003.32 1003.31 1003.50 1003.84 1004.29 1004.79 1005.29 1005.77 1006.22 1006.65 1007.08 1007.55 1008.07 1008.64 1009.27 1009.91 1010.55 1011.14 1011.65 1012.06 1012.38 1012.60 1012.76 1012.88 1012.99 1013.09 1013.20 1013.31 1013.41 1013.48 1013.50 1013.46 1013.36 1013.20 1013.00 1012.79
Thickness
5830 5832 5830 5820 5800 5791 5789 5798 5804 5802 5802 5812 5814 5806 5794 5789 5779 5767 5791 5802 5801 5797 5793 5790 5789 5789 5789 5790 5791 5791 5789 5788 5788 5789 5789 5788 5787 5786 5784 5783 5783 5782 5781 5779 5778 5777 5776 5775 5774
5840 5839 5828 5813 5794 5783 5786 5800 5800 5804 5811 5817 5814 5807 5795 5789 5796 5793 5796 5801 5803 5799 5794 5790 5788 5787 5787 5787 5787 5787 5787 5786 5786 5787 5787 5786 5785 5784 5783 5782 5781 5780 5779 5778 5777 5776 5775 5774 5773
5843 5843 5822 5809 5802 5794 5792 5806 5808 5815 5821 5816 5808 5805 5796 5789 5796 5797 5801 5805 5804 5799 5793 5788 5787 5787 5786 5785 5785 5785 5784 5784 5784 5784 5784 5784 5783 5782 5781 5780 5780 5779 5778 5777 5776 5775 5774 5773 5772
5842 5833 5823 5812 5804 5814 5813 5815 5819 5817 5818 5819 5810 5796 5797 5803 5802 5803 5807 5808 5803 5799 5794 5789 5788 5787 5785 5784 5783 5783 5783 5782 5782 5782 5781 5781 5781 5780 5780 5779 5778 5777 5777 5776 5775 5774 5773 5772 5771
5844 5827 5812 5810 5814 5822 5827 5829 5827 5816 5813 5814 5808 5791 5788 5803 5809 5809 5808 5808 5804 5800 5796 5790 5788 5787 5785 5784 5783 5782 5781 5781 5781 5780 5780 5779 5779 5778 5778 5778 5777 5777 5777 5776 5774 5773 5772 5771 5769
5832 5826 5808 5807 5815 5825 5831 5835 5829 5819 5815 5814 5807 5792 5788 5805 5806 5808 5809 5808 5807 5802 5796 5790 5788 5786 5785 5784 5783 5782 5781 5780 5780 5779 5778 5778 5777 5777 5776 5776 5776 5776 5776 5775 5773 5771 5770 5769 5768
5831 5822 5818 5821 5818 5820 5829 5838 5829 5819 5814 5815 5815 5795 5791 5802 5808 5810 5810 5809 5808 5804 5799 5793 5790 5787 5785 5784 5783 5782 5781 5780 5779 5779 5778 5777 5776 5775 5775 5774 5774 5774 5774 5773 5771 5770 5769 5768 5767
5855 5835 5826 5827 5820 5818 5834 5838 5835 5826 5818 5828 5824 5799 5790 5802 5811 5811 5809 5807 5805 5804 5800 5796 5794 5791 5788 5785 5783 5782 5781 5780 5779 5779 5778 5777 5776 5775 5774 5773 5773 5773 5772 5771 5770 5769 5769 5768 5767
5868 5833 5822 5829 5826 5826 5838 5832 5834 5839 5828 5825 5824 5815 5810 5813 5813 5808 5803 5801 5800 5800 5800 5799 5797 5794 5792 5789 5786 5784 5782 5781 5780 5779 5778 5777 5778 5776 5775 5774 5773 5772 5772 5771 5770 5770 5769 5768 5767
5859 5830 5834 5850 5848 5840 5839 5835 5834 5829 5819 5814 5814 5815 5817 5814 5809 5803 5799 5796 5796 5796 5798 5799 5798 5796 5795 5793 5788 5786 5785 5783 5782 5781 5780 5779 5779 5778 5777 5775 5774 5772 5772 5771 5770 5769 5769 5767 5767
5867 5850 5856 5860 5861 5854 5844 5840 5842 5827 5812 5813 5809 5810 5813 5811 5807 5804 5801 5800 5799 5799 5799 5799 5798 5796 5794 5793 5791 5789 5787 5785 5783 5782 5782 5781 5780 5779 5777 5775 5774 5772 5772 5771 5770 5769 5769 5769 5768
5867 5864 5868 5863 5865 5857 5849 5845 5839 5831 5824 5829 5825 5821 5815 5810 5807 5806 5803 5801 5801 5799 5798 5798 5797 5795 5793 5793 5792 5791 5789 5787 5786 5784 5783 5782 5781 5780 5779 5777 5776 5774 5774 5773 5772 5770 5770 5770 5769
5864 5865 5870 5870 5867 5862 5856 5846 5838 5833 5837 5836 5830 5824 5818 5813 5811 5810 5808 5805 5802 5799 5798 5797 5796 5793 5792 5791 5791 5791 5790 5788 5787 5785 5784 5783 5781 5780 5779 5778 5777 5776 5776 5774 5772 5771 5770 5769 5769
5867 5870 5870 5870 5866 5863 5851 5846 5839 5835 5841 5833 5827 5822 5820 5816 5813 5809 5806 5803 5801 5799 5798 5798 5796 5794 5792 5791 5790 5791 5790 5789 5787 5786 5784 5783 5782 5780 5779 5778 5777 5777 5776 5775 5773 5772 5770 5769 5768
5876 5861 5859 5864 5865 5862 5853 5833 5836 5843 5842 5831 5827 5824 5821 5819 5816 5811 5808 5806 5804 5801 5801 5799 5797 5795 5793 5792 5792 5792 5791 5790 5788 5785 5784 5783 5782 5781 5779 5778 5777 5776 5775 5774 5773 5772 5770 5769 5767
5862 5849 5835 5852 5861 5864 5846 5816 5837 5847 5840 5831 5829 5825 5821 5820 5819 5817 5814 5811 5808 5804 5801 5801 5802 5797 5794 5792 5792 5792 5791 5790 5788 5786 5785 5783 5782 5781 5780 5778 5777 5776 5775 5774 5772 5771 5768 5767 5765
5845 5832 5831 5844 5863 5864 5848 5827 5839 5850 5840 5831 5831 5828 5824 5820 5820 5820 5819 5815 5810 5806 5803 5801 5801 5798 5796 5794 5793 5792 5790 5789 5788 5787 5785 5783 5782 5782 5781 5778 5777 5776 5775 5774 5773 5770 5768 5764 5763
5828 5834 5837 5838 5859 5862 5848 5838 5843 5851 5844 5837 5834 5832 5827 5823 5822 5823 5822 5818 5813 5809 5805 5803 5800 5798 5797 5795 5793 5791 5790 5789 5789 5787 5785 5784 5783 5782 5781 5779 5777 5776 5774 5772 5770 5768 5767 5765 5763
5851 5845 5842 5848 5867 5862 5852 5844 5844 5851 5846 5841 5838 5835 5831 5829 5830 5828 5825 5821 5815 5810 5805 5803 5800 5798 5797 5793 5790 5787 5786 5787 5787 5786 5785 5783 5782 5781 5780 5778 5776 5774 5772 5770 5770 5767 5765 5764 5764
5857 5847 5845 5857 5873 5866 5854 5844 5849 5852 5850 5850 5845 5840 5837 5833 5830 5827 5825 5821 5816 5811 5807 5804 5801 5799 5798 5795 5793 5791 5789 5788 5788 5787 5784 5783 5782 5780 5780 5777 5775 5773 5770 5768 5768 5766 5762 5762 5763
5857 5853 5850 5853 5863 5864 5851 5837 5840 5850 5855 5856 5855 5850 5845 5839 5832 5828 5826 5822 5818 5812 5810 5808 5804 5801 5799 5798 5796 5794 5790 5788 5786 5784 5782 5782 5781 5780 5778 5777 5775 5773 5771 5767 5766 5765 5761 5757 5759
5848 5869 5866 5859 5848 5839 5844 5815 5830 5842 5842 5849 5852 5852 5849 5846 5840 5833 5828 5824 5821 5818 5815 5812 5807 5803 5801 5799 5796 5791 5786 5782 5783 5783 5783 5782 5782 5780 5778 5776 5774 5772 5770 5767 5766 5765 5763 5759 5755
5862 5876 5869 5861 5851 5839 5843 5828 5826 5843 5836 5847 5852 5855 5855 5852 5846 5839 5833 5829 5826 5824 5819 5814 5809 5805 5802 5800 5797 5792 5788 5786 5786 5786 5783 5782 5781 5780 5778 5776 5773 5771 5769 5767 5766 5764 5762 5760 5756
5875 5868 5860 5856 5846 5818 5835 5828 5819 5835 5843 5850 5855 5857 5859 5856 5852 5846 5841 5834 5829 5827 5822 5817 5810 5805 5803 5800 5798 5793 5789 5787 5785 5784 5781 5780 5780 5779 5777 5776 5773 5771 5769 5767 5765 5763 5761 5758 5756
5863 5838 5814 5804 5807 5813 5842 5835 5832 5853 5862 5861 5858 5858 5860 5860 5854 5848 5841 5834 5829 5826 5823 5818 5811 5805 5804 5801 5798 5795 5792 5789 5786 5784 5782 5780 5779 5777 5776 5776 5772 5770 5768 5766 5764 5762 5760 5758 5755
5850 5841 5809 5793 5799 5815 5835 5828 5844 5867 5875 5873 5870 5864 5862 5861 5858 5852 5845 5837 5832 5828 5825 5819 5812 5807 5804 5801 5798 5796 5793 5790 5788 5786 5784 5782 5780 5779 5777 5775 5772 5769 5767 5765 5763 5761 5759 5756 5754
5844 5840 5851 5831 5823 5811 5818 5833 5849 5868 5866 5868 5867 5865 5862 5860 5858 5854 5848 5841 5835 5831 5826 5822 5814 5808 5805 5803 5799 5795 5793 5790 5788 5787 5785 5783 5781 5779 5777 5774 5771 5768 5766 5763 5762 5759 5757 5755 5753
5858 5854 5843 5825 5804 5797 5807 5813 5823 5843 5851 5861 5861 5859 5858 5859 5857 5853 5849 5844 5839 5834 5829 5823 5817 5810 5807 5803 5799 5796 5793 5790 5788 5786 5783 5781 5779 5777 5774 5771 5768 5766 5763 5761 5759 5757 5755 5752 5750
5842 5840 5838 5832 5830 5808 5792 5803 5842 5847 5854 5855 5858 5860 5859 5858 5856 5852 5849 5844 5840 5835 5829 5822 5816 5811 5806 5803 5799 5796 5793 5790 5787 5784 5782 5780 5778 5774 5771 5768 5765 5762 5760 5758 5755 5753 5751 5749 5747
5849 5842 5837 5817 5814 5821 5812 5813 5856 5857 5860 5856 5855 5856 5856 5856 5855 5852 5847 5842 5837 5832 5827 5821 5816 5810 5806 5802 5798 5794 5791 5788 5785 5782 5780 5778 5775 5772 5769 5766 5763 5760 5757 5755 5752 5749 5747 5745 5742